Location: Newark
(42.7133°N, 87.7910°W)
Time: 23:17:40
(UTC+00:00)

Vanguard 1 - Pass Details

Date: 23 October 2019
Orbit: 652 x 3831 km, 34.2° (Epoch: 11 November)

Event Time Altitude Azimuth Distance (km) Brightness Sun altitude
Rises 03:58:01 0° 271° (W) 4,824 14.0 -52.1°
Reaches altitude 10° 04:00:44 10° 266° (W) 4,162 13.5 -52.4°
Enters shadow 04:04:38 27° 254° (WSW) 3,423 12.8 -52.9°
